TimeEST,TemperatureF,Dew PointF,Humidity,Sea Level PressureIn,VisibilityMPH,Wind Direction,Wind SpeedMPH,Gust SpeedMPH,PrecipitationIn,Events,Conditions,WindDirDegrees,DateUTC
12:53 AM,14.0,-0.0,54,30.18,10.0,West,4.6,-,N/A,,Clear,260,2013-02-02 05:53:00
1:53 AM,10.9,1.9,67,30.20,10.0,Calm,Calm,-,N/A,,Clear,0,2013-02-02 06:53:00
2:53 AM,8.1,3.0,80,30.22,10.0,SW,3.5,-,N/A,,Clear,230,2013-02-02 07:53:00
3:53 AM,8.1,1.9,76,30.22,10.0,Calm,Calm,-,N/A,,Clear,0,2013-02-02 08:53:00
4:53 AM,7.0,1.9,80,30.24,10.0,Calm,Calm,-,N/A,,Clear,0,2013-02-02 09:53:00
5:53 AM,6.1,3.0,87,30.22,10.0,Calm,Calm,-,N/A,,Partly Cloudy,0,2013-02-02 10:53:00
6:53 AM,6.8,3.2,85,30.19,10.0,Calm,Calm,-,N/A,,Clear,0,2013-02-02 11:53:00
7:53 AM,9.0,3.9,80,30.23,10.0,SE,3.5,-,N/A,,Mostly Cloudy,140,2013-02-02 12:53:00
8:53 AM,12.9,5.0,71,30.22,10.0,South,4.6,-,N/A,,Overcast,170,2013-02-02 13:53:00
9:53 AM,16.0,6.1,65,30.21,10.0,South,10.4,-,N/A,,Overcast,180,2013-02-02 14:53:00
10:17 AM,17.6,6.8,63,30.17,10.0,South,9.2,17.3,N/A,,Overcast,170,2013-02-02 15:17:00
10:53 AM,19.0,7.0,59,30.19,10.0,South,9.2,-,N/A,,Partly Cloudy,180,2013-02-02 15:53:00
11:53 AM,19.9,7.0,57,30.15,10.0,SSW,12.7,18.4,N/A,,Overcast,200,2013-02-02 16:53:00
12:53 PM,19.9,7.0,57,30.12,10.0,SW,10.4,18.4,N/A,,Overcast,220,2013-02-02 17:53:00
1:53 PM,21.9,10.0,60,30.09,9.0,Variable,4.6,-,N/A,,Overcast,0,2013-02-02 18:53:00
2:53 PM,21.9,10.0,60,30.08,10.0,South,3.5,-,N/A,,Overcast,170,2013-02-02 19:53:00
3:53 PM,21.9,12.0,66,30.07,7.0,South,8.1,-,N/A,,Overcast,190,2013-02-02 20:53:00
4:53 PM,21.0,15.1,78,30.06,1.8,South,4.6,-,0.00,Snow,Light Snow,190,2013-02-02 21:53:00
5:02 PM,21.2,15.8,80,30.02,3.0,South,4.6,-,0.00,Snow,Light Snow,190,2013-02-02 22:02:00
5:15 PM,21.2,15.8,80,30.02,2.5,SSW,4.6,-,0.00,Snow,Light Snow,200,2013-02-02 22:15:00
5:22 PM,21.2,15.8,80,30.02,4.0,South,5.8,-,0.00,Snow,Light Snow,190,2013-02-02 22:22:00
5:44 PM,19.4,15.8,86,30.02,4.0,Calm,Calm,-,0.00,Snow,Light Snow,0,2013-02-02 22:44:00
5:49 PM,19.4,15.8,86,30.02,2.5,North,3.5,-,0.00,Snow,Light Snow,350,2013-02-02 22:49:00
5:53 PM,19.9,16.0,85,30.06,2.0,North,4.6,-,0.00,Snow,Light Snow,350,2013-02-02 22:53:00
6:02 PM,19.4,15.8,86,30.03,1.8,Calm,Calm,-,0.00,Snow,Light Snow,0,2013-02-02 23:02:00
6:25 PM,19.4,15.8,86,30.02,1.5,North,3.5,-,0.00,Snow,Light Snow,10,2013-02-02 23:25:00
6:39 PM,19.4,17.6,93,30.02,2.0,North,3.5,-,0.00,Snow,Light Snow,10,2013-02-02 23:39:00
6:53 PM,19.9,17.1,89,30.07,5.0,North,3.5,-,0.00,Snow,Light Snow,10,2013-02-02 23:53:00
7:53 PM,19.9,16.0,85,30.08,10.0,Calm,Calm,-,0.00,,Overcast,0,2013-02-03 00:53:00
8:53 PM,19.0,10.0,68,30.08,10.0,SSW,5.8,-,N/A,,Overcast,200,2013-02-03 01:53:00
9:53 PM,19.9,8.1,60,30.08,10.0,Calm,Calm,-,N/A,,Overcast,0,2013-02-03 02:53:00
10:53 PM,18.0,9.0,68,30.07,10.0,Calm,Calm,-,N/A,,Overcast,0,2013-02-03 03:53:00
11:53 PM,16.0,9.0,74,30.07,10.0,West,3.5,-,N/A,,Overcast,270,2013-02-03 04:53:00